QFA499 YSSY-YMML

Flight info

Callsign QFA499
Flight time 1h 7m
Altitude 38000
Route MARUB7/34R WOL H65 LEECE Q29 BOOIN
Aircraft B738/M-SDE2E3FGHIRWXY/LB1

Departure

Time 2026-05-04 11:50
Airport Sydney Kingsford Smith International Airport (YSSY)

Arrival

Time 2026-05-04 12:58
Airport Melbourne Airport (YMML)
Time Latitude Longitude Altitude Speed Heading
2026-05-04 11:31 -33.93154 151.17622 29 ft 0 kts 114°
2026-05-04 11:38 -33.93150 151.17611 29 ft 4 kts 103°
2026-05-04 11:38 -33.93151 151.17580 29 ft 4 kts 84°
2026-05-04 11:39 -33.93148 151.17556 29 ft 4 kts 117°
2026-05-04 11:39 -33.93132 151.17532 29 ft 4 kts 151°
2026-05-04 11:40 -33.93114 151.17523 29 ft 0 kts 167°
2026-05-04 11:41 -33.93139 151.17529 29 ft 13 kts 168°
2026-05-04 11:41 -33.93285 151.17565 29 ft 25 kts 168°
2026-05-04 11:41 -33.93464 151.17587 29 ft 26 kts 181°
2026-05-04 11:42 -33.93633 151.17629 29 ft 24 kts 155°
2026-05-04 11:42 -33.93782 151.17699 29 ft 23 kts 160°
2026-05-04 11:42 -33.93922 151.17781 28 ft 23 kts 164°
2026-05-04 11:42 -33.94091 151.17828 28 ft 27 kts 167°
2026-05-04 11:43 -33.94281 151.17878 29 ft 28 kts 167°
2026-05-04 11:43 -33.94456 151.17901 29 ft 22 kts 201°
2026-05-04 11:43 -33.94603 151.17903 29 ft 22 kts 169°
2026-05-04 11:43 -33.94770 151.17946 29 ft 29 kts 168°
2026-05-04 11:44 -33.94978 151.17999 29 ft 30 kts 168°
2026-05-04 11:44 -33.95101 151.18055 29 ft 14 kts 122°
2026-05-04 11:44 -33.95090 151.18157 29 ft 14 kts 76°
2026-05-04 11:44 -33.95065 151.18295 29 ft 16 kts 78°
2026-05-04 11:45 -33.95047 151.18406 29 ft 5 kts 77°
2026-05-04 11:45 -33.95046 151.18410 29 ft 1 kts 77°
2026-05-04 11:45 -33.95050 151.18475 29 ft 16 kts 109°
2026-05-04 11:45 -33.95166 151.18598 29 ft 26 kts 137°
2026-05-04 11:46 -33.95337 151.18723 29 ft 31 kts 165°
2026-05-04 11:46 -33.95550 151.18780 29 ft 31 kts 167°
2026-05-04 11:46 -33.95754 151.18832 29 ft 29 kts 168°
2026-05-04 11:46 -33.95947 151.18880 29 ft 27 kts 168°
2026-05-04 11:47 -33.96124 151.18926 29 ft 26 kts 167°
2026-05-04 11:47 -33.96305 151.18974 29 ft 30 kts 167°
2026-05-04 11:47 -33.96523 151.19033 29 ft 33 kts 167°
2026-05-04 11:47 -33.96718 151.19071 29 ft 25 kts 183°
2026-05-04 11:48 -33.96883 151.19082 29 ft 23 kts 169°
2026-05-04 11:48 -33.97035 151.19121 29 ft 22 kts 167°
2026-05-04 11:48 -33.97124 151.19194 29 ft 15 kts 99°
2026-05-04 11:48 -33.97105 151.19317 30 ft 16 kts 76°
2026-05-04 11:49 -33.97073 151.19376 29 ft 5 kts
2026-05-04 11:49 -33.97065 151.19374 25 ft 0 kts 348°
2026-05-04 11:49 -33.97064 151.19374 25 ft 1 kts 348°
2026-05-04 11:49 -33.96910 151.19334 25 ft 56 kts 348°
2026-05-04 11:50 -33.96304 151.19177 26 ft 119 kts 347°
2026-05-04 11:50 -33.95367 151.18927 240 ft 147 kts 349°
2026-05-04 11:50 -33.94344 151.18717 827 ft 150 kts
2026-05-04 11:50 -33.93438 151.19288 1469 ft 161 kts 39°
2026-05-04 11:51 -33.92815 151.20540 1882 ft 190 kts 72°
2026-05-04 11:51 -33.93047 151.22151 2547 ft 204 kts 115°
2026-05-04 11:51 -33.93695 151.23673 3269 ft 207 kts 109°
2026-05-04 11:51 -33.93861 151.25436 3644 ft 224 kts 84°
2026-05-04 11:52 -33.93778 151.27398 3823 ft 246 kts 84°
2026-05-04 11:52 -33.93709 151.29527 4076 ft 261 kts 85°
2026-05-04 11:52 -33.93642 151.31761 4400 ft 275 kts 85°
2026-05-04 11:52 -33.93576 151.34020 4715 ft 289 kts 85°
2026-05-04 11:53 -33.93508 151.36409 5472 ft 290 kts 85°
2026-05-04 11:53 -33.93443 151.38849 6264 ft 293 kts 87°
2026-05-04 11:53 -33.93814 151.41278 7017 ft 301 kts 112°
2026-05-04 11:53 -33.94914 151.43221 7718 ft 306 kts 137°
2026-05-04 11:55 -34.07550 151.36875 11232 ft 368 kts 231°
2026-05-04 11:55 -34.09340 151.34682 11887 ft 373 kts 230°
2026-05-04 11:56 -34.11180 151.32458 12677 ft 376 kts 230°
2026-05-04 11:56 -34.13041 151.30229 13452 ft 379 kts 230°
2026-05-04 11:56 -34.14936 151.27967 14025 ft 388 kts 230°
2026-05-04 11:56 -34.16881 151.25648 14539 ft 396 kts 230°
2026-05-04 11:57 -34.18852 151.23304 15218 ft 399 kts 230°
2026-05-04 11:57 -34.20835 151.20949 15949 ft 401 kts 230°
2026-05-04 11:57 -34.22836 151.18570 16626 ft 405 kts 230°
2026-05-04 11:57 -34.24852 151.16170 17268 ft 409 kts 230°
2026-05-04 11:58 -34.26888 151.13743 17898 ft 413 kts 231°
2026-05-04 11:58 -34.28945 151.11291 18495 ft 417 kts 231°
2026-05-04 11:58 -34.31018 151.08817 19049 ft 420 kts 231°
2026-05-04 11:58 -34.33077 151.06358 19637 ft 422 kts 231°
2026-05-04 11:59 -34.35173 151.03855 20233 ft 425 kts 231°
2026-05-04 11:59 -34.37275 151.01340 20842 ft 426 kts 231°
2026-05-04 11:59 -34.39391 150.98809 21434 ft 428 kts 231°
2026-05-04 11:59 -34.41460 150.96216 21970 ft 427 kts 236°
2026-05-04 12:00 -34.43342 150.93432 22513 ft 427 kts 239°
2026-05-04 12:00 -34.45159 150.90579 23024 ft 429 kts 240°
2026-05-04 12:00 -34.46967 150.87693 23541 ft 431 kts 240°
2026-05-04 12:00 -34.48787 150.84793 23981 ft 434 kts 240°
2026-05-04 12:01 -34.50631 150.81878 24396 ft 437 kts 240°
2026-05-04 12:01 -34.52492 150.78960 24792 ft 440 kts 239°
2026-05-04 12:02 -34.63923 150.61189 27130 ft 452 kts 240°
2026-05-04 12:03 -34.65859 150.58174 27470 ft 454 kts 240°
2026-05-04 12:03 -34.67803 150.55142 27800 ft 456 kts 240°
2026-05-04 12:03 -34.69732 150.52130 28084 ft 459 kts 240°
2026-05-04 12:03 -34.71695 150.49065 28438 ft 460 kts 240°
2026-05-04 12:04 -34.73655 150.46005 28919 ft 458 kts 240°
2026-05-04 12:04 -34.75605 150.42960 29431 ft 456 kts 240°
2026-05-04 12:04 -34.77552 150.39913 29909 ft 455 kts 240°
2026-05-04 12:04 -34.79491 150.36874 30367 ft 454 kts 240°
2026-05-04 12:05 -34.81422 150.33846 30829 ft 452 kts 240°
2026-05-04 12:05 -34.83342 150.30832 31278 ft 450 kts 240°
2026-05-04 12:05 -34.85254 150.27830 31711 ft 447 kts 240°
2026-05-04 12:05 -34.87127 150.24884 32108 ft 445 kts 240°
2026-05-04 12:06 -34.89019 150.21903 32453 ft 445 kts 240°
2026-05-04 12:06 -34.90904 150.18934 32930 ft 441 kts 240°
2026-05-04 12:06 -34.92772 150.15990 33475 ft 437 kts 240°
2026-05-04 12:06 -34.94624 150.13067 33925 ft 435 kts 240°
2026-05-04 12:07 -34.96471 150.10149 34276 ft 434 kts 241°
2026-05-04 12:07 -34.98312 150.07235 34579 ft 434 kts 241°
2026-05-04 12:07 -35.00153 150.04319 34851 ft 434 kts 241°
2026-05-04 12:07 -35.01998 150.01396 35166 ft 434 kts 241°
2026-05-04 12:08 -35.03837 149.98484 35481 ft 433 kts 241°
2026-05-04 12:08 -35.05644 149.95617 35799 ft 431 kts 241°
2026-05-04 12:08 -35.07429 149.92685 36080 ft 430 kts 242°
2026-05-04 12:08 -35.09177 149.89728 36352 ft 429 kts 243°
2026-05-04 12:09 -35.10908 149.86765 36653 ft 428 kts 243°
2026-05-04 12:09 -35.12637 149.83800 36984 ft 427 kts 243°
2026-05-04 12:09 -35.14362 149.80844 37234 ft 428 kts 242°
2026-05-04 12:09 -35.16092 149.77885 37458 ft 428 kts 242°
2026-05-04 12:10 -35.17826 149.74925 37721 ft 428 kts 242°
2026-05-04 12:10 -35.19558 149.71972 37997 ft 427 kts 242°
2026-05-04 12:10 -35.23017 149.66068 38109 ft 431 kts 242°
2026-05-04 12:11 -35.26496 149.60134 38112 ft 427 kts 242°
2026-05-04 12:11 -35.29945 149.54238 38118 ft 424 kts 242°
2026-05-04 12:12 -35.33368 149.48373 38112 ft 423 kts 242°
2026-05-04 12:12 -35.36757 149.42553 38107 ft 422 kts 242°
2026-05-04 12:14 -35.50378 149.19067 38110 ft 426 kts 243°
2026-05-04 12:15 -35.53812 149.13122 38118 ft 428 kts 243°
2026-05-04 12:15 -35.57258 149.07148 38134 ft 429 kts 243°
2026-05-04 12:16 -35.60710 149.01153 38116 ft 430 kts 242°
2026-05-04 12:16 -35.64162 148.95146 38121 ft 430 kts 242°
2026-05-04 12:17 -35.67586 148.89181 38116 ft 429 kts 243°
2026-05-04 12:17 -35.71026 148.83174 38150 ft 430 kts 243°
2026-05-04 12:18 -35.74474 148.77141 38122 ft 431 kts 243°
2026-05-04 12:18 -35.77915 148.71112 38103 ft 430 kts 242°
2026-05-04 12:19 -35.81327 148.65124 38100 ft 429 kts 242°
2026-05-04 12:19 -35.84751 148.59104 38093 ft 429 kts 243°
2026-05-04 12:20 -35.87614 148.54061 38106 ft 429 kts 243°
2026-05-04 12:20 -35.90999 148.48070 38096 ft 428 kts 243°
2026-05-04 12:21 -35.94384 148.42047 38096 ft 427 kts 242°
2026-05-04 12:21 -35.98307 148.35056 38121 ft 425 kts 242°
2026-05-04 12:22 -36.01674 148.29043 38115 ft 427 kts 242°
2026-05-04 12:22 -36.04479 148.24027 38108 ft 427 kts 242°
2026-05-04 12:23 -36.07863 148.17966 38113 ft 430 kts 242°
2026-05-04 12:23 -36.11262 148.11869 38108 ft 432 kts 242°
2026-05-04 12:24 -36.14681 148.05744 38108 ft 434 kts 242°
2026-05-04 12:24 -36.18114 147.99599 38096 ft 435 kts 242°
2026-05-04 12:25 -36.21533 147.93466 38106 ft 436 kts 242°
2026-05-04 12:25 -36.24971 147.87286 38105 ft 436 kts 242°
2026-05-04 12:26 -36.28400 147.81108 38104 ft 435 kts 242°
2026-05-04 12:26 -36.31821 147.74936 38093 ft 433 kts 242°
2026-05-04 12:27 -36.35201 147.68822 38092 ft 432 kts 242°
2026-05-04 12:27 -36.38582 147.62688 38093 ft 431 kts 242°
2026-05-04 12:28 -36.41961 147.56543 38089 ft 431 kts 242°
2026-05-04 12:28 -36.45339 147.50390 38084 ft 430 kts 242°
2026-05-04 12:29 -36.48682 147.44289 38073 ft 430 kts 242°
2026-05-04 12:29 -36.52042 147.38148 38077 ft 429 kts 242°
2026-05-04 12:30 -36.55396 147.32006 38075 ft 429 kts 242°
2026-05-04 12:30 -36.58740 147.25871 38086 ft 428 kts 242°
2026-05-04 12:31 -36.62077 147.19736 38072 ft 428 kts 242°
2026-05-04 12:31 -36.65391 147.13632 38078 ft 428 kts 243°
2026-05-04 12:32 -36.70398 147.04394 38084 ft 430 kts 243°
2026-05-04 12:33 -36.73750 146.98204 38075 ft 431 kts 242°
2026-05-04 12:33 -36.77100 146.92011 38073 ft 431 kts 243°
2026-05-04 12:34 -36.80433 146.85840 38094 ft 432 kts 243°
2026-05-04 12:34 -36.83789 146.79609 38082 ft 433 kts 242°
2026-05-04 12:35 -36.87162 146.73333 37604 ft 441 kts 242°
2026-05-04 12:35 -36.88868 146.70157 37062 ft 438 kts 242°
2026-05-04 12:35 -36.90562 146.67004 36461 ft 437 kts 243°
2026-05-04 12:35 -36.92251 146.63856 35839 ft 436 kts 243°
2026-05-04 12:36 -36.93918 146.60743 35174 ft 438 kts 243°
2026-05-04 12:36 -36.95611 146.57575 34449 ft 440 kts 244°
2026-05-04 12:36 -36.97317 146.54382 33652 ft 442 kts 244°
2026-05-04 12:36 -36.99021 146.51190 32858 ft 442 kts 244°
2026-05-04 12:37 -37.00728 146.47991 32056 ft 443 kts 244°
2026-05-04 12:37 -37.02438 146.44782 31265 ft 443 kts 244°
2026-05-04 12:37 -37.04151 146.41566 30436 ft 445 kts 245°
2026-05-04 12:37 -37.05870 146.38332 29488 ft 447 kts 244°
2026-05-04 12:38 -37.07594 146.35086 28465 ft 449 kts 243°
2026-05-04 12:38 -37.09322 146.31831 27576 ft 448 kts 243°
2026-05-04 12:38 -37.11008 146.28654 26925 ft 441 kts 242°
2026-05-04 12:38 -37.12694 146.25469 26243 ft 435 kts 242°
2026-05-04 12:39 -37.14355 146.22328 25595 ft 430 kts 241°
2026-05-04 12:39 -37.15994 146.19221 24939 ft 425 kts 240°
2026-05-04 12:39 -37.17613 146.16147 24298 ft 421 kts 240°
2026-05-04 12:39 -37.19217 146.13101 23635 ft 417 kts 240°
2026-05-04 12:40 -37.20810 146.10073 22875 ft 414 kts 239°
2026-05-04 12:40 -37.22383 146.07080 22197 ft 408 kts 240°
2026-05-04 12:40 -37.23935 146.04127 21569 ft 403 kts 239°
2026-05-04 12:40 -37.25446 146.01247 20929 ft 398 kts 239°
2026-05-04 12:41 -37.26959 145.98361 20297 ft 394 kts 239°
2026-05-04 12:41 -37.28458 145.95499 19673 ft 390 kts 239°
2026-05-04 12:41 -37.29938 145.92673 19066 ft 386 kts 239°
2026-05-04 12:41 -37.31409 145.89866 18455 ft 383 kts 239°
2026-05-04 12:42 -37.32864 145.87103 17791 ft 380 kts 240°
2026-05-04 12:42 -37.34235 145.84504 17168 ft 376 kts 239°
2026-05-04 12:42 -37.35674 145.81774 16538 ft 372 kts 240°
2026-05-04 12:42 -37.37091 145.79082 15956 ft 367 kts 240°
2026-05-04 12:43 -37.38495 145.76411 15342 ft 365 kts 239°
2026-05-04 12:43 -37.39868 145.73794 14765 ft 362 kts 239°
2026-05-04 12:43 -37.41246 145.71166 14194 ft 359 kts 240°
2026-05-04 12:43 -37.42612 145.68558 13583 ft 356 kts 240°
2026-05-04 12:44 -37.43968 145.65969 12954 ft 353 kts 240°
2026-05-04 12:44 -37.45311 145.63407 12355 ft 349 kts 239°
2026-05-04 12:44 -37.46704 145.60914 11751 ft 347 kts 237°
2026-05-04 12:44 -37.48134 145.58479 11155 ft 345 kts 237°
2026-05-04 12:45 -37.49553 145.56081 10873 ft 338 kts 237°
2026-05-04 12:45 -37.50944 145.53711 10627 ft 339 kts 237°
2026-05-04 12:45 -37.52331 145.51324 10380 ft 346 kts 236°
2026-05-04 12:45 -37.53757 145.48861 10132 ft 348 kts 236°
2026-05-04 12:46 -37.55182 145.46397 9903 ft 346 kts 236°
2026-05-04 12:46 -37.56598 145.43949 9639 ft 345 kts 237°
2026-05-04 12:46 -37.58011 145.41511 9369 ft 344 kts 237°
2026-05-04 12:46 -37.59419 145.39078 9104 ft 342 kts 237°
2026-05-04 12:47 -37.60819 145.36659 8592 ft 341 kts 237°
2026-05-04 12:47 -37.62201 145.34269 8212 ft 333 kts 237°
2026-05-04 12:47 -37.63551 145.31933 7966 ft 327 kts 237°
2026-05-04 12:47 -37.64898 145.29595 7715 ft 333 kts 237°
2026-05-04 12:48 -37.66258 145.27234 7237 ft 331 kts 237°
2026-05-04 12:48 -37.67604 145.24899 6693 ft 327 kts 236°
2026-05-04 12:48 -37.68918 145.22618 6142 ft 324 kts 237°
2026-05-04 12:48 -37.70233 145.20335 5610 ft 319 kts 237°
2026-05-04 12:49 -37.71531 145.18076 5090 ft 315 kts 237°
2026-05-04 12:49 -37.72784 145.15900 4973 ft 298 kts 237°
2026-05-04 12:49 -37.73982 145.13816 4841 ft 289 kts 237°
2026-05-04 12:49 -37.75144 145.11792 4706 ft 278 kts 237°
2026-05-04 12:50 -37.76256 145.09857 4585 ft 266 kts 237°
2026-05-04 12:50 -37.77319 145.08002 4472 ft 255 kts 238°
2026-05-04 12:50 -37.78339 145.06221 4372 ft 245 kts 238°
2026-05-04 12:50 -37.79319 145.04509 4264 ft 235 kts 238°
2026-05-04 12:51 -37.80247 145.02888 4188 ft 226 kts 238°
2026-05-04 12:51 -37.81136 145.01299 4095 ft 216 kts 244°
2026-05-04 12:51 -37.81595 144.99566 4031 ft 202 kts 260°
2026-05-04 12:51 -37.81882 144.97890 3956 ft 188 kts 259°
2026-05-04 12:52 -37.82159 144.96327 3855 ft 176 kts 259°
2026-05-04 12:52 -37.82416 144.94872 3767 ft 164 kts 259°
2026-05-04 12:52 -37.82629 144.93480 3707 ft 161 kts 262°
2026-05-04 12:52 -37.82800 144.92096 3630 ft 156 kts 262°
2026-05-04 12:53 -37.82963 144.90769 3485 ft 147 kts 262°
2026-05-04 12:53 -37.83114 144.89533 3306 ft 141 kts 262°
2026-05-04 12:53 -37.83145 144.88334 3170 ft 136 kts 286°
2026-05-04 12:53 -37.82416 144.87519 3117 ft 154 kts 325°
2026-05-04 12:54 -37.81453 144.86877 2901 ft 158 kts 324°
2026-05-04 12:54 -37.80393 144.86437 2695 ft 161 kts 334°
2026-05-04 12:54 -37.79309 144.86124 2474 ft 158 kts 338°
2026-05-04 12:54 -37.78243 144.85906 2277 ft 154 kts 339°
2026-05-04 12:55 -37.77205 144.85711 2080 ft 148 kts 340°
2026-05-04 12:55 -37.76200 144.85524 1895 ft 145 kts 340°
2026-05-04 12:55 -37.75215 144.85340 1732 ft 140 kts 342°
2026-05-04 12:55 -37.74291 144.85169 1513 ft 132 kts 341°
2026-05-04 12:56 -37.73378 144.84995 1342 ft 135 kts 347°
2026-05-04 12:56 -37.72436 144.84819 1161 ft 138 kts 349°
2026-05-04 12:56 -37.71494 144.84633 999 ft 136 kts 349°
2026-05-04 12:56 -37.70555 144.84459 818 ft 135 kts 352°
2026-05-04 12:57 -37.69644 144.84303 639 ft 132 kts 349°
2026-05-04 12:57 -37.68731 144.84126 424 ft 131 kts 350°
2026-05-04 12:57 -37.67863 144.83966 355 ft 112 kts 351°
2026-05-04 12:57 -37.67241 144.83850 377 ft 60 kts 351°
2026-05-04 12:58 -37.66983 144.83851 385 ft 22 kts 13°
2026-05-04 12:58 -37.66854 144.83905 390 ft 19 kts 21°
2026-05-04 12:58 -37.66739 144.83985 393 ft 19 kts 50°
2026-05-04 12:58 -37.66708 144.84140 394 ft 18 kts 81°
2026-05-04 12:59 -37.66690 144.84296 390 ft 18 kts 81°
2026-05-04 12:59 -37.66672 144.84445 397 ft 17 kts 81°
2026-05-04 12:59 -37.66655 144.84583 399 ft 15 kts 81°
2026-05-04 12:59 -37.66641 144.84710 401 ft 12 kts 82°
2026-05-04 13:00 -37.66642 144.84771 401 ft 2 kts 111°
2026-05-04 13:00 -37.66652 144.84788 398 ft 3 kts 136°
2026-05-04 13:00 -37.66681 144.84813 398 ft 7 kts 130°
2026-05-04 13:00 -37.66683 144.84873 400 ft 5 kts 82°
2026-05-04 13:01 -37.66680 144.84897 400 ft 1 kts 81°
2026-05-04 13:01 -37.66680 144.84898 400 ft 0 kts 81°